Location: Central Falls
(41.8900°N, 71.3929°W)
Time: 06:40:32
(UTC+00:00)

Tiros 1 despin weight - Pass Details

Date: 08 December 2023
Orbit: 581 x 624 km, 48.2° (Epoch: 28 February)

Event Time Altitude Azimuth Distance (km) Brightness Sun altitude
Rises 21:12:00 0° 230° (SW) 2,814 ? -0.5°
Reaches altitude 10° 21:14:18 10° 227° (SW) 1,909 ? -0.8°
Maximum altitude 21:18:37 61° 147° (SSE) 665 ? -1.5°
Drops below altitude 10° 21:22:54 10° 67° (ENE) 1,899 ? -2.2°
Enters shadow 21:24:27 - 65° (ENE) 2,509 ? -2.5°
Sets 21:25:11 0° 64° (ENE) 2,799 - -2.6°
